Temp_Advection
nan nan nan nan nan nan nan nan nan nan nan nan nan nan nan nan nan nan nan nan nan nan nan nan nan nan nan nan nan nan nan nan nan nan nan nan nan nan nan nan nan nan nan
nan -0 -0 -0 -0 -0 -1 -0 -0 -0 0 -0 -0 0 0 0 0 0 0 -0 0 0 0 -0 0 -0 -0 0 0 -0 -0 -0 -0 -1 -2 -1 -1 -0 -0 -0 -1 -1 nan
nan -0 -0 -0 -0 -0 -0 -0 -0 -0 0 0 0 0 0 0 0 -0 -0 0 0 0 0 0 0 0 -0 -0 0 -0 -0 -0 -0 -1 -1 -1 -1 -1 -0 -0 -1 -1 nan
nan -0 -0 -0 -0 -0 -0 -0 -0 -0 0 0 -0 0 0 0 0 -0 0 0 0 0 0 0 0 0 -0 -0 -0 -0 -0 -0 -0 -1 -1 -1 -1 -0 -0 -0 -0 -0 nan
nan -0 -0 -0 -0 -0 -0 -0 -0 -0 0 -0 -0 0 0 -0 -0 -0 -0 0 0 0 0 0 0 1 0 -0 -0 -0 -0 -0 -0 -0 -0 -0 -1 -1 -1 -0 -0 -0 nan
nan 0 0 0 -0 -0 -0 -0 -0 -0 0 -0 0 0 -0 0 0 0 0 -0 0 0 0 0 -0 -0 1 0 -0 0 -0 -0 -0 -0 -0 -0 -0 -1 -0 -0 -0 -0 nan
nan -0 0 0 -0 -0 -0 -0 -0 -0 -0 0 -0 0 0 0 0 -0 -0 0 0 0 0 -0 -0 -0 -0 0 -0 0 0 0 0 -0 -0 0 -0 -0 -0 -0 -0 -0 nan
nan -0 -0 -0 -0 -0 0 0 0 -0 -0 -0 0 0 0 0 0 -0 -0 -0 -0 0 0 0 -0 -0 -0 -0 -0 -0 -0 -0 -0 -0 -0 -0 -0 -0 -0 -0 -0 -0 nan
nan -0 -0 -0 -0 -0 0 -0 0 0 0 -0 -0 0 0 0 0 -0 -0 -0 -0 0 0 0 0 -0 -0 -0 -0 -0 -0 -0 -0 0 0 -0 -0 -0 -0 -0 -0 0 nan
nan -0 -0 -0 -0 -0 -0 -0 0 0 0 0 0 0 0 0 0 -0 -0 -1 -0 -0 -0 0 0 -0 -0 -0 -0 -0 -0 -0 -1 -0 0 0 -0 -0 -0 -0 -0 -0 nan
nan 0 0 0 -0 -0 -0 -0 -0 -0 0 0 0 0 0 0 -0 -0 -0 -0 -0 -0 -0 -0 0 -0 0 -0 -0 -0 -0 -0 -0 -0 -0 -0 -0 -0 -0 -0 -0 -0 nan
nan 0 1 0 -0 -0 0 -0 -0 -0 0 0 0 0 0 0 -0 -0 -0 0 0 0 0 0 0 0 0 0 -0 -0 -0 -0 -0 -0 -0 -0 -0 -0 -0 0 -0 -0 nan
nan 0 0 0 0 0 0 0 0 0 0 0 0 0 0 0 -0 -0 -0 -0 0 0 0 0 0 0 0 0 0 -0 -0 -0 -0 -0 -0 -0 -0 -0 -0 -0 -0 -0 nan
nan 0 -0 -0 0 0 0 0 0 0 0 0 0 0 0 0 0 -0 -0 -0 -0 0 0 0 1 0 0 0 0 0 -0 -0 -0 -0 -0 -0 -0 -0 -0 0 0 -0 nan
nan 0 -0 -0 -0 0 0 0 0 0 0 0 0 0 0 0 0 0 -0 -0 -0 -0 -0 -0 0 0 0 0 0 0 0 -0 -0 -0 -0 -0 -0 -0 -0 -0 0 -0 nan
nan 0 -0 -0 -0 0 0 0 0 0 0 0 -0 0 0 0 0 0 0 -0 -0 -0 -0 -0 -0 -0 -0 -0 -0 0 0 -0 -0 -0 -0 -0 -0 -0 -0 -0 -0 -0 nan
nan -0 0 -0 -0 0 0 0 0 0 0 0 0 0 0 0 0 0 0 0 -0 -0 -0 -0 -0 -0 -0 -0 -0 -0 0 0 -0 -0 -0 -0 -0 -0 -0 -0 -0 -0 nan
nan -0 0 0 0 0 0 0 0 0 0 0 0 0 0 0 0 0 0 0 0 -0 -0 0 0 -0 -0 -0 0 -0 -0 -0 0 0 -0 -0 -0 -0 -0 -0 -0 -0 nan
nan 0 -0 0 0 1 0 0 1 0 0 0 0 0 0 0 0 0 0 0 0 0 -0 -0 0 0 0 -0 -0 0 0 0 0 0 -0 -0 -0 -0 -0 -0 -0 -0 nan
nan -0 0 -0 0 1 1 0 0 0 0 0 0 0 0 -0 0 0 0 0 0 0 0 0 0 0 0 0 0 0 0 0 0 0 0 0 -0 -0 -0 -0 -0 -0 nan
nan -0 -0 -0 -0 0 1 1 0 0 0 0 0 0 0 -0 0 0 0 0 0 0 0 0 0 0 0 0 0 -0 -0 -0 -0 -0 0 0 0 0 0 -0 -0 -0 nan
nan -0 0 -0 -0 0 0 1 0 0 0 0 0 0 0 0 0 0 0 0 0 0 0 0 0 0 0 0 0 0 0 -0 -0 -0 -0 0 0 -0 0 0 0 0 nan
nan -0 -0 -0 -0 0 0 0 1 1 1 0 0 0 0 0 0 -0 0 0 0 0 0 0 0 0 0 0 0 0 0 -0 -0 -0 -0 -0 -0 -0 -0 -0 -0 -0 nan
nan -0 -0 -0 -0 -0 0 0 0 0 0 0 0 0 0 0 0 0 0 0 0 0 0 0 0 0 0 0 0 0 0 0 -0 -0 -0 -0 -0 -0 -0 -0 -0 -0 nan
nan -0 -0 -0 -0 -0 0 0 0 0 0 0 1 1 0 0 0 -0 0 0 0 0 0 0 0 0 0 0 0 0 0 0 -0 -0 -0 -0 -0 -0 -0 -0 -0 -0 nan
nan nan nan nan nan nan nan nan nan nan nan nan nan nan nan nan nan nan nan nan nan nan nan nan nan nan nan nan nan nan nan nan nan nan nan nan nan nan nan nan nan nan nan
Wind_Speed
13 15 16 14 16 21 25 22 17 18 22 26 28 26 27 24 17 17 15 18 22 23 23 27 28 29 33 36 34 33 29 27 33 39 37 37 34 25 22 24 25 27 25
12 13 13 16 22 22 20 19 21 27 26 23 24 24 29 25 14 18 13 20 23 23 27 31 31 33 36 34 31 31 31 28 28 32 33 33 32 23 22 25 27 26 24
12 14 19 22 21 21 24 26 29 31 26 22 20 26 21 10 14 12 18 20 22 26 31 32 35 35 35 33 32 32 31 30 26 25 32 30 29 25 27 25 25 25 24
15 20 22 21 21 24 26 29 33 29 22 19 22 23 15 13 12 18 18 20 27 30 32 33 34 34 32 32 30 31 30 28 28 29 27 28 24 23 22 25 25 23 24
20 22 18 17 20 26 30 32 32 24 20 18 20 18 11 14 17 14 19 25 29 32 33 34 33 31 26 26 27 28 31 30 27 26 28 26 27 21 20 21 22 20 21
20 18 17 19 25 28 31 32 26 22 20 18 16 10 12 13 15 19 22 28 30 30 32 33 32 28 25 22 24 23 23 24 25 25 27 29 27 26 25 21 18 19 20
18 18 17 23 27 30 29 26 21 20 12 6 10 13 11 14 19 22 27 28 28 29 31 27 24 23 21 19 17 20 22 23 22 23 24 21 22 23 23 26 24 18 20
16 17 22 25 28 28 24 23 18 15 12 13 13 9 14 17 22 25 26 25 27 27 25 22 22 21 18 19 26 24 24 24 22 21 21 22 22 21 19 23 24 24 25
19 21 23 26 27 25 25 20 15 14 15 13 10 12 16 21 23 23 23 24 25 24 22 20 20 20 18 22 23 23 23 19 17 17 20 21 21 23 23 17 18 19 22
20 22 25 26 25 24 23 16 14 13 13 12 12 15 20 21 20 20 21 23 24 24 23 21 20 18 19 20 21 22 21 22 22 19 18 17 17 19 21 24 24 23 17
21 24 25 24 23 23 19 13 12 11 11 12 15 18 19 19 18 18 21 21 22 24 23 24 20 18 19 19 18 17 19 21 18 15 14 15 13 12 13 14 19 26 28
23 25 24 21 21 20 16 15 14 13 13 13 15 17 16 15 17 18 20 19 20 22 22 21 20 19 20 19 15 15 17 17 16 14 14 13 13 13 12 12 14 15 16
25 25 21 20 20 18 17 16 15 14 13 14 16 16 14 14 16 18 19 18 20 21 21 20 18 19 20 17 13 14 16 15 14 13 14 14 14 13 11 10 10 11 13
24 23 18 20 21 18 16 14 13 13 15 16 17 15 13 13 14 17 18 19 20 20 20 20 18 17 17 16 14 12 14 14 13 14 14 13 11 10 10 11 5 4 4
23 21 19 20 22 19 14 12 12 15 17 17 15 13 13 13 14 16 16 18 19 19 18 18 17 17 17 16 15 15 15 12 11 12 13 12 12 12 12 12 11 8 4
21 20 20 19 18 17 15 14 15 15 20 14 12 13 13 13 13 14 15 17 17 17 17 17 17 17 18 18 18 18 18 14 11 12 13 13 12 12 13 11 8 9 9
19 20 20 18 16 18 16 17 18 15 16 14 13 13 13 12 12 12 13 15 17 16 15 14 15 16 17 17 17 17 18 18 13 11 12 13 11 11 11 11 10 9 7
19 19 19 19 18 20 18 19 18 17 15 15 14 14 12 12 11 12 13 14 14 14 14 14 13 14 15 15 16 17 16 16 14 11 11 11 10 10 9 9 10 10 10
20 20 19 21 20 20 18 16 17 17 17 17 16 14 14 12 12 11 12 13 14 14 14 13 13 13 13 13 14 15 16 16 15 14 13 12 11 9 9 9 10 10 10
21 19 18 20 22 20 18 18 19 19 20 18 18 16 14 15 14 12 13 13 13 14 14 13 12 12 12 12 13 13 13 14 14 14 13 12 12 11 10 10 11 11 11
27 26 24 25 24 22 20 20 21 21 20 19 18 15 16 16 14 14 13 13 13 13 13 13 13 12 12 12 12 12 13 13 14 14 14 13 12 11 10 10 11 11 10
24 21 24 28 25 21 22 19 17 16 17 19 18 19 16 18 16 16 16 15 14 14 13 13 13 13 12 12 12 12 12 12 12 12 12 12 12 11 11 10 10 10 10
25 23 24 23 20 19 20 18 17 17 17 18 18 19 20 19 17 16 17 16 16 15 14 13 12 13 13 12 12 12 12 12 12 12 11 12 11 11 11 11 10 10 9
24 23 22 21 20 19 20 21 19 19 19 19 21 22 22 22 21 20 18 17 17 16 15 14 12 12 12 12 13 13 12 11 11 11 11 11 11 11 10 9 10 9 9
23 24 22 21 20 20 22 24 25 25 25 24 24 22 24 24 24 23 22 20 20 19 17 15 13 12 12 12 13 13 12 11 11 11 10 10 11 11 10 9 9 9 8
23 23 21 20 20 20 22 25 28 28 28 29 29 27 23 24 24 23 21 18 19 19 17 16 14 13 13 12 12 12 11 11 10 10 10 10 11 10 10 9 9 9 9
Wind_Direction
340 333 322 314 319 323 327 332 326 318 313 307 301 280 287 303 282 293 292 303 316 316 317 316 309 303 303 305 303 302 301 297 291 291 287 284 283 278 267 266 275 281 279
318 316 317 323 330 336 339 336 332 326 322 307 302 297 302 307 280 289 297 308 307 309 310 306 302 303 304 304 303 301 300 299 296 292 292 288 283 276 256 262 272 273 276
311 318 326 332 336 337 338 333 329 327 318 308 296 297 300 283 288 295 312 299 301 304 305 305 305 305 305 303 301 300 301 302 300 291 288 289 287 282 267 263 267 270 274
319 328 331 334 336 335 332 329 328 325 314 304 298 298 283 276 288 307 298 298 303 303 305 305 304 304 302 303 303 303 300 301 296 293 298 287 290 287 279 262 260 267 271
327 331 326 325 327 328 326 327 327 320 311 305 310 305 275 287 303 298 301 304 306 309 309 307 306 305 301 297 296 295 294 298 296 292 289 290 288 293 287 281 266 266 269
329 315 312 316 322 325 327 328 328 320 310 303 285 286 297 300 307 303 307 314 314 313 313 313 312 312 310 305 300 300 293 290 289 291 287 286 288 284 278 285 266 260 272
324 317 307 319 324 328 327 327 326 322 325 313 305 303 302 300 305 314 318 316 319 321 321 321 322 322 318 319 327 325 316 303 296 291 289 288 292 286 278 276 279 274 269
323 316 320 324 327 327 328 326 321 318 306 309 307 299 296 306 316 317 316 321 326 327 328 327 327 327 333 330 325 315 311 306 308 284 287 293 290 286 293 269 269 270 266
320 323 324 326 327 326 327 326 316 308 295 305 285 286 302 312 314 316 321 329 332 334 332 332 330 324 333 326 322 323 324 321 324 300 289 288 287 276 273 276 262 265 264
322 322 323 323 325 325 323 314 308 305 300 292 282 298 308 313 315 323 330 333 335 339 340 336 333 328 332 326 322 321 327 320 318 321 309 301 290 282 271 261 259 255 254
316 318 320 317 321 322 321 315 303 294 292 284 292 303 311 314 322 328 333 336 340 341 337 339 336 336 331 328 325 329 323 322 321 320 318 319 319 310 296 277 261 255 256
315 316 315 306 314 320 310 302 300 299 287 280 297 307 312 316 325 331 336 338 345 344 341 341 341 338 336 335 331 327 327 328 328 326 324 326 325 323 313 292 273 264 259
313 315 314 298 305 313 305 297 294 289 275 289 303 310 314 317 325 330 332 343 348 347 345 342 340 340 338 337 332 335 337 341 344 347 345 341 336 329 325 308 284 269 265
311 315 317 304 303 300 302 300 291 277 282 295 302 306 309 314 321 327 335 349 344 349 349 347 344 342 342 341 338 334 341 349 352 350 349 351 357 0 7 6 351 285 273
308 311 316 303 299 290 292 298 295 289 291 294 296 297 302 310 318 326 339 340 342 347 349 351 350 354 360 0 4 358 357 355 359 2 2 2 5 6 11 17 32 24 22
307 308 307 304 295 285 285 287 296 296 308 288 287 296 296 303 312 326 333 337 340 344 348 351 357 359 0 4 6 8 7 8 6 8 7 6 5 4 6 12 19 31 38
316 311 309 304 291 291 283 285 286 297 309 292 288 293 294 295 307 319 325 332 338 340 345 349 352 357 358 0 3 5 7 6 359 355 360 4 5 4 3 4 8 5 1
312 314 308 307 290 284 279 282 275 286 294 290 288 281 291 289 300 309 318 323 334 334 340 347 349 351 354 356 359 1 3 3 3 355 350 351 357 0 358 358 359 1 359
313 309 311 302 301 288 282 271 271 282 291 285 290 279 285 279 289 296 305 317 326 329 333 339 341 344 346 348 352 355 355 357 358 356 350 347 343 338 346 353 356 353 347
306 306 302 306 294 289 280 270 275 280 284 280 284 286 275 277 280 284 295 305 312 317 320 327 331 334 336 338 341 344 347 350 351 353 353 350 348 344 335 334 336 341 348
306 302 302 295 296 282 278 272 276 281 269 271 279 286 281 275 280 273 286 295 302 308 312 318 322 327 332 331 334 338 341 344 346 347 348 350 351 350 346 340 341 339 341
316 307 300 300 294 272 274 277 279 274 270 267 275 271 276 277 280 277 281 286 291 298 304 309 315 318 325 326 328 332 333 337 342 344 345 347 349 349 349 347 346 348 348
315 310 308 308 296 273 269 277 274 276 281 275 271 274 268 273 278 281 277 277 281 287 294 298 305 311 317 320 322 326 327 328 332 335 339 346 348 349 349 351 355 359 356
310 311 308 307 297 279 264 272 275 276 277 285 277 269 268 268 274 276 283 275 274 279 281 287 293 302 309 315 316 318 320 321 325 329 331 337 340 345 347 349 351 354 360
308 311 306 306 298 289 277 274 276 277 277 280 281 277 270 270 270 271 280 274 268 270 270 276 283 293 300 308 312 312 312 313 317 322 326 330 334 337 340 343 347 350 350
304 308 307 305 303 294 287 283 284 284 283 280 277 275 276 267 268 267 272 277 270 262 261 266 273 283 293 301 305 306 304 305 307 313 318 321 325 327 329 331 332 338 342
Height
1547 1546 1544 1542 1540 1537 1533 1530 1527 1524 1522 1518 1515 1511 1509 1507 1504 1504 1503 1502 1499 1497 1494 1490 1488 1484 1479 1476 1473 1470 1467 1465 1457 1450 1449 1447 1445 1446 1446 1446 1444 1443 1442
1545 1543 1541 1539 1535 1532 1529 1525 1522 1519 1515 1511 1509 1506 1504 1500 1500 1500 1498 1497 1494 1492 1489 1485 1481 1476 1472 1469 1465 1461 1458 1456 1452 1445 1441 1438 1437 1438 1438 1438 1438 1437 1436
1542 1540 1538 1534 1531 1527 1524 1521 1517 1512 1508 1505 1504 1502 1498 1496 1496 1495 1493 1491 1489 1487 1483 1478 1473 1468 1464 1460 1457 1453 1450 1447 1444 1441 1434 1433 1430 1430 1430 1431 1431 1430 1430
1539 1536 1532 1529 1526 1522 1519 1515 1511 1506 1501 1499 1498 1495 1493 1492 1492 1491 1489 1487 1484 1481 1476 1471 1466 1461 1457 1453 1449 1446 1443 1440 1437 1434 1430 1426 1425 1424 1423 1423 1423 1424 1423
1534 1531 1528 1524 1522 1518 1514 1509 1504 1500 1496 1494 1492 1490 1489 1489 1488 1486 1485 1482 1478 1473 1469 1463 1458 1454 1450 1447 1444 1440 1436 1433 1430 1428 1425 1422 1420 1419 1418 1417 1416 1417 1416
1529 1526 1523 1521 1517 1513 1508 1503 1499 1495 1491 1489 1488 1488 1487 1486 1485 1482 1479 1476 1471 1467 1460 1455 1450 1445 1442 1439 1436 1433 1431 1427 1424 1422 1419 1416 1414 1414 1413 1412 1411 1411 1411
1524 1522 1519 1516 1512 1508 1503 1498 1495 1492 1488 1487 1486 1485 1484 1483 1481 1478 1474 1470 1466 1460 1454 1448 1443 1440 1437 1433 1430 1427 1424 1421 1418 1416 1413 1411 1409 1408 1407 1406 1405 1406 1406
1520 1517 1514 1510 1506 1502 1498 1494 1491 1489 1487 1486 1484 1483 1482 1479 1477 1473 1469 1465 1460 1455 1449 1444 1440 1436 1433 1430 1426 1422 1418 1415 1411 1409 1407 1405 1403 1402 1400 1400 1400 1400 1400
1515 1512 1509 1505 1501 1497 1494 1491 1488 1487 1485 1483 1482 1481 1479 1476 1473 1469 1465 1460 1455 1450 1446 1442 1437 1433 1430 1427 1422 1417 1413 1409 1406 1403 1402 1399 1397 1396 1395 1395 1394 1394 1394
1511 1508 1504 1501 1497 1493 1490 1488 1485 1484 1482 1481 1479 1478 1475 1472 1469 1465 1461 1456 1451 1446 1442 1438 1434 1430 1427 1423 1419 1414 1410 1406 1402 1399 1397 1394 1392 1389 1388 1388 1389 1389 1390
1506 1503 1499 1496 1492 1489 1486 1484 1483 1481 1479 1478 1476 1474 1472 1468 1465 1461 1458 1453 1448 1443 1439 1434 1430 1427 1423 1420 1416 1412 1408 1403 1399 1396 1393 1391 1388 1386 1384 1382 1382 1382 1383
1500 1497 1494 1491 1489 1485 1483 1481 1480 1478 1476 1475 1473 1471 1468 1465 1462 1458 1455 1450 1446 1441 1437 1432 1428 1424 1420 1416 1413 1409 1406 1401 1397 1394 1391 1388 1385 1383 1381 1379 1377 1377 1377
1495 1492 1488 1486 1484 1481 1479 1477 1476 1474 1473 1471 1469 1467 1464 1462 1459 1456 1452 1448 1444 1439 1435 1430 1426 1422 1418 1414 1411 1407 1404 1400 1396 1393 1389 1387 1384 1381 1378 1375 1374 1373 1373
1489 1486 1483 1481 1479 1477 1475 1473 1471 1470 1469 1467 1465 1463 1461 1459 1456 1453 1449 1445 1442 1438 1433 1429 1424 1421 1417 1413 1409 1406 1402 1399 1395 1392 1389 1386 1383 1380 1377 1374 1371 1371 1371
1483 1480 1478 1476 1474 1472 1470 1469 1468 1467 1465 1462 1461 1460 1458 1456 1454 1450 1447 1443 1439 1436 1432 1428 1424 1419 1416 1412 1409 1405 1401 1398 1395 1392 1389 1386 1384 1381 1378 1376 1373 1372 1371
1477 1475 1473 1471 1468 1467 1466 1465 1464 1462 1460 1457 1457 1456 1454 1452 1450 1447 1444 1441 1437 1434 1430 1427 1423 1419 1415 1412 1408 1405 1401 1398 1395 1393 1390 1387 1385 1382 1380 1377 1376 1374 1373
1472 1470 1468 1466 1464 1463 1461 1460 1459 1458 1456 1454 1453 1452 1450 1449 1447 1444 1442 1439 1435 1432 1429 1426 1422 1419 1415 1412 1409 1405 1402 1399 1396 1393 1391 1389 1386 1384 1381 1379 1377 1376 1374
1468 1466 1463 1461 1459 1458 1456 1455 1454 1453 1451 1450 1450 1448 1447 1445 1443 1441 1439 1436 1434 1430 1427 1424 1421 1419 1415 1412 1409 1406 1403 1400 1397 1394 1392 1389 1387 1385 1383 1381 1379 1377 1375
1464 1461 1458 1456 1454 1452 1450 1450 1449 1448 1446 1445 1445 1444 1443 1441 1440 1438 1436 1433 1431 1428 1426 1423 1420 1417 1415 1412 1409 1406 1403 1400 1397 1394 1392 1389 1386 1385 1383 1381 1379 1377 1375
1458 1456 1453 1450 1448 1446 1445 1444 1443 1442 1441 1440 1439 1439 1438 1437 1435 1434 1432 1430 1428 1426 1423 1421 1418 1416 1413 1411 1408 1406 1403 1400 1398 1395 1392 1389 1387 1384 1382 1380 1378 1376 1374
1452 1449 1447 1444 1442 1440 1439 1438 1437 1436 1435 1435 1434 1434 1433 1431 1431 1429 1428 1426 1424 1423 1420 1418 1416 1414 1411 1409 1407 1404 1402 1400 1397 1394 1391 1389 1386 1384 1382 1380 1378 1376 1373
1445 1442 1440 1437 1434 1433 1432 1431 1430 1429 1428 1428 1428 1428 1427 1426 1425 1424 1423 1422 1420 1419 1417 1415 1413 1411 1408 1406 1405 1402 1400 1398 1396 1394 1391 1388 1386 1384 1381 1379 1377 1375 1373
1440 1436 1433 1430 1427 1426 1426 1426 1424 1423 1422 1422 1422 1422 1421 1420 1419 1418 1417 1416 1415 1414 1413 1411 1410 1408 1406 1404 1402 1400 1398 1396 1394 1392 1390 1388 1386 1384 1381 1379 1377 1375 1373
1434 1430 1427 1424 1422 1420 1420 1420 1419 1418 1417 1416 1415 1414 1414 1413 1412 1412 1411 1410 1409 1409 1408 1407 1406 1405 1403 1401 1399 1397 1396 1394 1392 1390 1389 1387 1385 1383 1381 1379 1377 1376 1374
1427 1424 1421 1418 1416 1414 1413 1413 1412 1411 1410 1409 1408 1406 1406 1406 1405 1404 1404 1403 1403 1403 1402 1402 1401 1400 1399 1397 1396 1394 1392 1391 1390 1388 1387 1385 1383 1382 1380 1378 1376 1375 1374
1421 1418 1415 1412 1410 1408 1407 1405 1404 1403 1401 1400 1399 1398 1397 1396 1396 1397 1396 1396 1396 1396 1396 1396 1396 1395 1394 1393 1392 1390 1389 1388 1387 1385 1384 1383 1381 1380 1378 1377 1375 1374 1372